Crystal River, FL

12:43 AM EST on December 11, 2019 (GMT -0500)
Crystal River

Weather History for KCGC - October, 2019

Change the Weather History Date:

Thursday, October 24, 2019

  Actual Average (KBKV) Record (KBKV)
Temperature  
Mean Temperature 74 °F -  
Max Temperature 87 °F 80 °F 91 °F (2019)
Min Temperature 62 °F 56 °F 41 °F (1999)
Cooling Degree Days 10    
Growing Degree Days 24 (Base 50)    
Moisture  
Dew Point 66 °F    
Average Humidity 75    
Maximum Humidity 88    
Minimum Humidity 58    
Precipitation  
Precipitation 0.00 in - - ()
Sea Level Pressure  
Sea Level Pressure 30.09 in    
Wind  
Wind Speed 6 mph (ENE)    
Max Wind Speed 13 mph    
Max Gust Speed 16 mph    
Visibility 10 miles    
Events      
Averages and records for this station are not official NWS values.
T = Trace of Precipitation, MM = Missing Value Source: NWS Daily Summary

Daily Weather History Graph

Daily Weather History Graph

Search for Another Location

Airport or City:

Astronomy

Oct. 24, 2019 Rise Set
Actual Time 7:36 AM EDT 6:51 PM EDT
Civil Twilight 7:12 AM EDT 7:15 PM EDT
Nautical Twilight 6:45 AM EDT 7:43 PM EDT
Astronomical Twilight 6:17 AM EDT 8:10 PM EDT
Moon 3:34 AM EDT (10/24) 4:53 PM EDT (10/24)
Length of Visible Light 12h 02m
Length of Day
11h 14m
Waning Crescent, 17% of the Moon is Illuminated
Oct 24
Waning Crescent
Oct 27
New
Nov 4
First Quarter
Nov 12
Full
Nov 19
Last Quarter

Hourly Weather History & Observations

Time (EDT) Temp. Heat Index Dew Point Humidity Pressure Visibility Wind Dir Wind Speed Gust Speed Precip Events Conditions
12:15 AM 66.2 °F - 55.4 °F 68% 30.12 in 10.0 mi ENE 3.5 mph - N/A   Clear
12:35 AM 64.4 °F - 55.4 °F 73% 30.11 in 10.0 mi ENE 3.5 mph - N/A   Clear
12:55 AM 64.4 °F - 55.4 °F 73% 30.11 in 10.0 mi ENE 4.6 mph - N/A   Clear
1:15 AM 64.4 °F - 55.4 °F 73% 30.11 in 10.0 mi ENE 3.5 mph - N/A   Clear
1:35 AM 64.4 °F - 55.4 °F 73% 30.10 in 10.0 mi ENE 4.6 mph - N/A   Clear
1:55 AM 64.4 °F - 55.4 °F 73% 30.10 in 10.0 mi ENE 4.6 mph - N/A   Clear
2:15 AM 64.4 °F - 55.4 °F 73% 30.10 in 10.0 mi ENE 4.6 mph - N/A   Clear
2:35 AM 62.6 °F - 55.4 °F 77% 30.09 in 10.0 mi ENE 4.6 mph - N/A   Clear
2:55 AM 62.6 °F - 55.4 °F 77% 30.09 in 10.0 mi East 3.5 mph - N/A   Clear
3:15 AM 62.6 °F - 57.2 °F 82% 30.09 in 10.0 mi ENE 3.5 mph - N/A   Clear
3:35 AM 62.6 °F - 55.4 °F 77% 30.09 in 10.0 mi Calm Calm - N/A   Clear
3:55 AM 62.6 °F - 55.4 °F 77% 30.08 in 10.0 mi Calm Calm - N/A   Clear
4:15 AM 62.6 °F - 57.2 °F 82% 30.08 in 10.0 mi ENE 3.5 mph - N/A   Clear
4:35 AM 62.6 °F - 57.2 °F 82% 30.07 in 10.0 mi ENE 3.5 mph - N/A   Clear
4:55 AM 62.6 °F - 57.2 °F 82% 30.07 in 10.0 mi Calm Calm - N/A   Clear
5:35 AM 64.4 °F - 57.2 °F 77% 30.09 in 10.0 mi NE 3.5 mph - N/A   Clear
5:55 AM 62.6 °F - 57.2 °F 82% 30.09 in 10.0 mi Calm Calm - N/A   Clear
6:15 AM 64.4 °F - 59.0 °F 83% 30.09 in 10.0 mi ENE 4.6 mph - N/A   Clear
6:35 AM 64.4 °F - 59.0 °F 83% 30.09 in 10.0 mi ENE 4.6 mph - N/A   Clear
6:55 AM 64.4 °F - 59.0 °F 83% 30.09 in 10.0 mi ENE 3.5 mph - N/A   Mostly Cloudy
7:15 AM 64.4 °F - 60.8 °F 88% 30.09 in - ENE 4.6 mph - N/A   Unknown
7:35 AM 64.4 °F - 60.8 °F 88% 30.10 in 10.0 mi East 4.6 mph - N/A   Clear
7:55 AM 64.4 °F - 60.8 °F 88% 30.10 in 10.0 mi East 4.6 mph - N/A   Clear
8:15 AM 66.2 °F - 60.8 °F 83% 30.10 in 10.0 mi East 5.8 mph - N/A   Scattered Clouds
8:35 AM 68.0 °F - 62.6 °F 83% 30.11 in 10.0 mi East 4.6 mph - N/A   Clear
8:55 AM 68.0 °F - 62.6 °F 83% 30.11 in 10.0 mi East 4.6 mph - N/A   Clear
9:15 AM 71.6 °F - 64.4 °F 78% 30.11 in 10.0 mi East 5.8 mph - N/A   Clear
9:35 AM 73.4 °F - 66.2 °F 78% 30.11 in 10.0 mi East 8.1 mph - N/A   Clear
9:55 AM 77.0 °F - 68.0 °F 74% 30.12 in 10.0 mi East 9.2 mph - N/A   Clear
10:15 AM 78.8 °F - 69.8 °F 74% 30.13 in 10.0 mi East 6.9 mph - N/A   Clear
10:35 AM 80.6 °F 83.9 °F 69.8 °F 70% 30.13 in 10.0 mi East 9.2 mph - N/A   Clear
10:55 AM 80.6 °F 83.9 °F 69.8 °F 70% 30.13 in 10.0 mi East 9.2 mph - N/A   Clear
11:35 AM 82.4 °F 87.2 °F 71.6 °F 70% 30.12 in 10.0 mi East 11.5 mph - N/A   Scattered Clouds
11:55 AM 82.4 °F 87.2 °F 71.6 °F 70% 30.11 in 10.0 mi East 9.2 mph - N/A   Scattered Clouds
12:15 PM 86.0 °F 91.8 °F 71.6 °F 62% 30.11 in 10.0 mi East 10.4 mph - N/A   Mostly Cloudy
12:35 PM 84.2 °F 89.6 °F 71.6 °F 66% 30.10 in 10.0 mi East 9.2 mph - N/A   Mostly Cloudy
12:55 PM 86.0 °F 91.8 °F 71.6 °F 62% 30.10 in 10.0 mi ENE 10.4 mph - N/A   Mostly Cloudy
1:15 PM 86.0 °F 91.8 °F 71.6 °F 62% 30.09 in 10.0 mi East 9.2 mph - N/A   Mostly Cloudy
1:35 PM 86.0 °F 91.8 °F 71.6 °F 62% 30.08 in 10.0 mi East 9.2 mph - N/A   Scattered Clouds
1:55 PM 86.0 °F 91.8 °F 71.6 °F 62% 30.07 in 10.0 mi East 11.5 mph - N/A   Mostly Cloudy
2:15 PM 87.8 °F 93.8 °F 71.6 °F 58% 30.06 in 10.0 mi East 5.8 mph - N/A   Mostly Cloudy
2:35 PM 86.0 °F 91.8 °F 71.6 °F 62% 30.05 in 10.0 mi East 8.1 mph - N/A   Mostly Cloudy
2:55 PM 87.8 °F 93.8 °F 71.6 °F 58% 30.05 in 10.0 mi ESE 6.9 mph - N/A   Scattered Clouds
3:35 PM 87.8 °F 93.8 °F 71.6 °F 58% 30.04 in 10.0 mi ENE 8.1 mph - N/A   Scattered Clouds
3:55 PM 87.8 °F 93.8 °F 71.6 °F 58% 30.04 in 10.0 mi ENE 6.9 mph - N/A   Mostly Cloudy
4:15 PM 87.8 °F 93.8 °F 71.6 °F 58% 30.04 in 10.0 mi ENE 10.4 mph 16.1 mph N/A   Mostly Cloudy
4:55 PM 86.0 °F 93.4 °F 73.4 °F 66% 30.04 in 10.0 mi ENE 9.2 mph - N/A   Scattered Clouds
5:15 PM 86.0 °F 93.4 °F 73.4 °F 66% 30.04 in 10.0 mi ENE 12.7 mph - N/A   Mostly Cloudy
5:35 PM 84.2 °F 89.6 °F 71.6 °F 66% 30.04 in 10.0 mi NE 9.2 mph - N/A   Mostly Cloudy
5:55 PM 84.2 °F 90.9 °F 73.4 °F 70% 30.04 in 10.0 mi East 9.2 mph - N/A   Mostly Cloudy
6:35 PM 80.6 °F 84.6 °F 71.6 °F 74% 30.05 in 10.0 mi ENE 9.2 mph - N/A   Scattered Clouds
6:55 PM 80.6 °F 84.6 °F 71.6 °F 74% 30.06 in 10.0 mi ENE 9.2 mph - N/A   Scattered Clouds
7:15 PM 80.6 °F 84.6 °F 71.6 °F 74% 30.06 in 10.0 mi ENE 9.2 mph - N/A   Mostly Cloudy
7:35 PM 80.6 °F 84.6 °F 71.6 °F 74% 30.07 in 10.0 mi ENE 9.2 mph 16.1 mph N/A   Overcast
7:55 PM 78.8 °F - 71.6 °F 78% 30.08 in 10.0 mi ENE 6.9 mph - N/A   Overcast
8:15 PM 78.8 °F - 71.6 °F 78% 30.09 in 10.0 mi ENE 6.9 mph - N/A   Overcast
8:35 PM 78.8 °F - 71.6 °F 78% 30.10 in 10.0 mi East 10.4 mph - N/A   Mostly Cloudy
8:55 PM 78.8 °F - 71.6 °F 78% 30.11 in 10.0 mi ENE 8.1 mph - N/A   Mostly Cloudy
9:15 PM 78.8 °F - 71.6 °F 78% 30.11 in 10.0 mi East 9.2 mph - N/A   Mostly Cloudy
9:35 PM 77.0 °F - 71.6 °F 83% 30.11 in 10.0 mi East 9.2 mph - N/A   Mostly Cloudy
9:55 PM 77.0 °F - 71.6 °F 83% 30.12 in 10.0 mi East 6.9 mph - N/A   Mostly Cloudy
10:15 PM 77.0 °F - 71.6 °F 83% 30.12 in 10.0 mi East 9.2 mph 16.1 mph N/A   Overcast
10:35 PM 77.0 °F - 71.6 °F 83% 30.12 in 10.0 mi East 9.2 mph - N/A   Mostly Cloudy
10:55 PM 77.0 °F - 71.6 °F 83% 30.13 in 10.0 mi East 8.1 mph - N/A   Scattered Clouds
11:15 PM 77.0 °F - 71.6 °F 83% 30.12 in 10.0 mi East 6.9 mph - N/A   Scattered Clouds
11:35 PM 77.0 °F - 71.6 °F 83% 30.12 in 10.0 mi East 8.1 mph - N/A   Clear
11:55 PM 77.0 °F - 71.6 °F 83% 30.12 in 10.0 mi East 4.6 mph - N/A   Clear